Location: Hochstatterhof
(48.7256°N, 10.3487°E)
Time: 01:39:42
(UTC+00:00)

IRS-1C - Pass Details

Date: 26 September 2023
Orbit: 814 x 816 km, 99.0° (Epoch: 04 December)

Event Time Altitude Azimuth Distance (km) Brightness Sun altitude
Rises 03:59:33 0° 15° (NNE) 3,357 7.7 -12.4°
Reaches altitude 10° 04:01:54 10° 16° (NNE) 2,421 7.0 -12.0°
Maximum altitude 04:07:17 83° 105° (ESE) 829 4.2 -11.2°
Drops below altitude 10° 04:12:37 10° 194° (SSW) 2,403 6.3 -10.3°
Sets 04:14:56 0° 195° (SSW) 3,330 7.1 -9.9°
